Weather in Molodyozhny

Russia / Khabarovsk Krai     50°22′41″N   136°56′52″E
temp.,
°C
wind,
m/s
gust,
m/s
humid.,
%
clouds,
%
prec.,
mm/h
press.,
hPa
HPBL,
m
2 march, tue
tue201:00−22e128826 0.0 102620
04:00−24ese119538 0.0 102620
07:00−25sse129769 0.0 102723
10:00−22s349162 0.0 1027341
13:00−19s348394 0.0 1025483
16:00−17s348186 0.0 1024511
19:00−21s239577 0.0 102630
22:00−23ssw129753 0.0 102820
3 march, wed
wed301:00−24sse229541 0.0 102720
04:00−25sse239731 0.0 102840
07:00−26sse349963 0.0 1028117
10:00−23s489381 0.0 1027363
13:00−15s81383100 0.0 1023615
16:00−13s8137379 0.0 1020674
19:00−15s61582100 0.0 1019467
22:00−15s51591100 0.0 1018466
4 march, thu
thu401:00−15ssw51391100 0.0 1016377
04:00−15s4994100 0.0 1015289
07:00−16sse3595100 0.0 1014127
10:00−13s349097 0.0 1013248
13:00−8s478668 0.0 1011448
16:00−6s6118770 0.0 1009516
19:00−7s41393100 0.0 1008407
22:00−9wnw1294100 0.0 100748
5 march, fri
fri501:00−13n61385100 0.0 1007405
04:00−16n91688100 0.1 1009531
07:00−18nnw81479100 0.2 1013637
10:00−18nnw6980100 0.2 1016627
13:00−15nne4575100 0.0 1016731
16:00−14ne226796 0.0 1017669
19:00−18sw118224 0.0 102020
22:00−18n387341 0.0 1022208
6 march, sat
sat601:00−22s128139 0.0 102325
04:00−23ese229465 0.0 102548
07:00−23s3596100 0.1 1027200
10:00−23s4792100 0.1 1027488
13:00−20s6986100 0.0 1026604
16:00−19s6986100 0.0 1025585
19:00−21s488991 0.0 1025227
22:00−23sse229251 0.0 102724